TimeEDT,TemperatureF,Dew PointF,Humidity,Sea Level PressureIn,VisibilityMPH,Wind Direction,Wind SpeedMPH,Gust SpeedMPH,PrecipitationIn,Events,Conditions,WindDirDegrees,DateUTC
12:53 AM,41.0,41.0,100,-9999,0.1,ESE,77.1,107.0,N/A,Fog-Rain,Heavy Rain,110,2012-10-30 04:53:00
1:47 AM,41.0,41.0,100,-9999,0.1,ESE,70.2,86.3,N/A,Fog-Rain,Light Rain,110,2012-10-30 05:47:00
2:53 AM,42.8,42.8,100,-9999,0.1,ESE,58.7,95.5,N/A,Fog-Rain,Light Rain,120,2012-10-30 06:53:00
3:54 AM,42.8,42.8,100,-9999,0.0,ESE,56.4,69.0,N/A,Fog-Rain,Rain,120,2012-10-30 07:54:00
4:55 AM,42.8,42.8,100,-9999,0.0,ESE,44.9,62.1,N/A,Fog-Rain,Light Rain,120,2012-10-30 08:55:00
5:55 AM,42.8,42.8,100,-9999,0.0,ESE,39.1,56.4,N/A,Fog-Rain,Light Rain,120,2012-10-30 09:55:00
7:47 AM,41.0,41.0,100,-9999,0.1,SE,59.8,70.2,N/A,Fog-Rain,Light Rain,130,2012-10-30 11:47:00
8:59 AM,41.0,41.0,100,-9999,0.0,SE,76.0,80.6,N/A,Fog-Rain,Light Rain,130,2012-10-30 12:59:00
9:51 AM,42.8,42.8,100,-9999,0.0,ESE,54.1,70.2,N/A,Fog-Rain,Light Rain,120,2012-10-30 13:51:00
10:49 AM,42.8,42.8,100,-9999,6.0,SE,51.8,65.6,N/A,Fog-Rain,Rain,130,2012-10-30 14:49:00
11:52 AM,42.8,42.8,100,-9999,0.0,SE,49.5,59.8,N/A,Fog-Rain,Rain,130,2012-10-30 15:52:00
12:48 PM,42.8,42.8,100,-9999,0.0,SE,50.6,74.8,N/A,Fog-Rain,Rain,130,2012-10-30 16:48:00
1:49 PM,41.0,41.0,100,-9999,0.0,SE,52.9,72.5,N/A,Fog-Rain,Rain,130,2012-10-30 17:49:00
2:48 PM,42.8,42.8,100,-9999,0.0,SE,49.5,62.1,N/A,Fog-Rain,Rain,140,2012-10-30 18:48:00
3:47 PM,41.0,41.0,100,-9999,0.0,SE,54.1,62.1,N/A,Fog-Rain,Light Rain,130,2012-10-30 19:47:00
4:52 PM,41.0,41.0,100,-9999,0.0,SE,42.6,50.6,N/A,Fog-Rain,Light Rain,130,2012-10-30 20:52:00
5:49 PM,42.8,42.8,100,-9999,0.0,SE,48.3,-,N/A,Fog-Rain,Rain,130,2012-10-30 21:49:00
6:52 PM,42.8,42.8,100,-9999,0.0,ESE,44.9,61.0,N/A,Fog-Rain,Light Rain,120,2012-10-30 22:52:00
7:47 PM,42.8,42.8,100,-9999,0.0,ESE,61.0,72.5,N/A,Fog-Rain,Light Rain,120,2012-10-30 23:47:00
9:55 PM,42.8,42.8,100,-9999,0.0,ESE,35.7,56.4,N/A,Fog-Rain,Light Rain,110,2012-10-31 01:55:00
10:52 PM,42.8,42.8,100,-9999,0.0,SSE,63.3,74.8,N/A,Fog-Rain-Thunderstorm,Thunderstorms and Rain,150,2012-10-31 02:52:00
11:54 PM,41.0,41.0,100,-9999,0.0,SE,54.1,65.6,N/A,Fog-Rain,Light Rain,140,2012-10-31 03:54:00